Flag for United Arab Emirates Weather past 2 weeks in Ajmān, Ajman, United Arab Emirates

Now
95 °F

Sunny.


Feels Like: 92 °F
Forecast: 76 / 92 °F
Wind: 14 mph from Northwest

Location: Sharjah International Airport

Current Time: Apr 28, 2015 at 3:35:47 PM

Latest Report: Apr 28, 2015 at 3:00 PM


Visibility: 10 mi

Pressure: 29.83 "Hg

Humidity: 23%

Dew point: 52 °F

Location of AjmānLocation

Historic Weather in Ajmān — Graph

°F

Ajmān temperature yesterday

Maximum temperature yesterday: 91 °F (at 2:00 PM)
Minimum temperature yesterday: 73 °F (at 5:00 AM)
Average temperature yesterday: 82 °F

Past Weeks' High & Low Weather Summary

 TemperatureHumidityPressure
High104 °F (Apr 24, 12:00 PM)89% (Apr 28, 4:00 AM)30.07 "Hg (Apr 28, 4:00 AM)
Low64 °F (Apr 21, 6:00 AM)9% (Apr 24, 12:00 PM)29.74 "Hg (Apr 18, 6:00 PM)
Average83 °F47%29.85 "Hg
* Reported Apr 13 2:00 PM — Apr 28 2:00 PM, Ajmān, Weather by CustomWeather, © 2015

Note: Actual official high and low records may vary slightly from our data, if they occured in-between our weather recording intervals... More about our weather records

Advertising

Ajmān weather history for previous 24 hours

 ConditionsComfort  
Time TempWeatherWind HumidityBarometerVisibility
2:00 PM
Tue, Apr 28
95 °FSunny.12 mph30%29.83 "Hg10 mi
1:00 PM97 °FSunny.9 mph18%29.86 "Hg10 mi
12:00 PM93 °FSunny.8 mph47%29.89 "Hg10 mi
11:00 AM91 °FHot.6 mph46%29.89 "HgN/A
10:00 AM86 °FSunny.3 mph59%29.89 "Hg10 mi
9:00 AM79 °FClear.6 mph74%29.89 "Hg4 mi
8:00 AM77 °FScattered clouds.6 mph79%29.89 "Hg2 mi
7:00 AM75 °FPartly sunny.7 mph89%29.86 "Hg1 mi
6:00 AM75 °FPartly sunny.6 mph89%29.83 "Hg1 mi
5:00 AM73 °FFog.7 mph89%29.83 "Hg1 mi
4:00 AM73 °FClear.5 mph89%29.80 "Hg4 mi
3:00 AM77 °FClear.5 mph83%29.80 "Hg5 mi
2:00 AM77 °FClear.5 mph79%29.80 "Hg10 mi
1:00 AM79 °FClear.6 mph79%29.83 "Hg10 mi
12:00 AM81 °FClear.6 mph74%29.83 "Hg10 mi
11:00 PM
Mon, Apr 27
81 °FClear.5 mph74%29.83 "Hg10 mi
10:00 PM82 °FClear.3 mph70%29.83 "Hg10 mi
9:00 PM82 °FClear.2 mph70%29.83 "Hg10 mi
8:00 PM81 °FClear.3 mph74%29.83 "Hg10 mi
7:00 PM84 °FClear.8 mph66%29.80 "Hg10 mi
6:00 PM88 °FSunny.9 mph52%29.80 "Hg10 mi
5:00 PM88 °FSunny.12 mph52%29.80 "Hg10 mi
4:00 PM91 °FSunny.12 mph44%29.80 "Hg10 mi
3:00 PM91 °FSunny.10 mph49%29.80 "Hg10 mi
Weather by CustomWeather, © 2015

See weather overviewHow to use our weather pages